sat.trackr.live / text

‹ back to catalog

STARLINK-4762

NORAD 53866 · 2022-114BA

PAYLOAD ACTIVE UNKNOWN

§ Identity

Operator
Country
US
Launch date
2022-09-19
Launch site
AFETR
Launch vehicle
Mass (kg)
RCS (m²)

Purposes: comms

External: N2YO · Heavens-Above · Gunter

§ Orbital elements

Epoch: 2026-05-25T02:13:32.239200Z

Period
95.44 min
Inclination
53.2137°
Eccentricity
0.0001333
Mean motion
15.08837106 rev/d
Perigee alt
538.8 km
Apogee alt
540.7 km
Semi-major
6,917.9 km
B*
1.0454e-4
RAAN
281.3403°
Arg perigee
91.4456°
Mean anomaly
268.6689°
Rev number
20,492

§ Raw data

STARLINK-47621 53866U 22114BA  26145.09273425  .00001376  00000+0  10454-3 0  99912 53866  53.2137 281.3403 0001333  91.4456 268.6689 15.08837106204922

JSON: /api/v1/satellites/53866 · /tle

For live sub-satellite position, see the globe view (requires WebGL).

§ Visibility from observer

Set your observer location to see the next 7 days of passes ≥ 10°. The values pass through the URL so the page stays shareable.

No JS? Fill the form by hand. The geolocation button needs JavaScript.